Погода в Григоровке

Украина / Запорожская область     47°41′36″N   35°21′27″E
темп.,
°C
ветер,
м/с
пор.,
м/с
влажн.,
%
обл.,
%
осадки,
мм/ч
давл.,
гПа
погр.,
м
26 мая, чт
чт2600:00+15юз366014 0.0 1018105
03:00+12з256519 0.0 101987
06:00+13зюз386976 0.0 1018212
09:00+17юз71052100 0.0 1018703
12:00+21юз81141100 0.0 10161704
15:00+17зюз81259100 0.1 10171140
18:00+14юз71182100 1.2 1016677
21:00+14юз589360 1.3 1016406
27 мая, пт
пт2700:00+14юз589343 0.0 1016312
03:00+13з38934 0.1 1016174
06:00+12з310845 0.1 1016247
09:00+19з610575 0.1 1016898
12:00+23з7104557 0.0 10162250
15:00+22зсз5948100 0.0 1015988
18:00+21сз3455100 0.0 1015363
21:00+18ююз2262100 0.0 101530
28 мая, сб
сб2800:00+18юз51071100 0.0 1014391
03:00+17юз6127356 0.0 1013454
06:00+16юз61276100 0.0 1012432
09:00+17юз6117499 0.1 1012555
12:00+20юз596533 0.0 1012834
15:00+23зюз465930 0.9 10111239
18:00+22зюз11636 2.9 1011557
21:00+18ю338174 5.3 101237
29 мая, вс
вс2900:00+17юз5118392 0.3 1012302
03:00+16зюз3592100 0.3 1013169
06:00+16ссз349380 0.0 1013242
09:00+16ссв558162 0.0 1015567
12:00+19св446557 0.0 1016880
15:00+18с6671100 0.0 1017417
18:00+16св477993 0.2 1017269
21:00+15св488160 0.2 1017215
30 мая, пн
пн3000:00+14св47860 0.0 1017157
03:00+13всв37875 0.0 1016144
06:00+14в48905 0.0 1016208
09:00+22в46665 0.0 1015540
12:00+27вюв574559 0.0 10131626
15:00+29юв674075 0.0 10122159
18:00+27юв6751100 0.0 10121345
21:00+22вюв410730 0.0 1011219